Location: Fort Worth, Tx
(32.7431°N, 97.3695°W)
Time: 05:06:30
(UTC-05:00)

Transit 4A - All Passes

Search period start: 28 January 2023 00:00
Search period end: 07 February 2023 00:00
Orbit: 871 x 973 km, 66.8° (Epoch: 27 January)

Date Brightness Start Highest point End Pass type
(mag) Time Alt. Az. Time Alt. Az. Time Alt. Az.
28 Jan - 05:22:33 10° N 05:28:11 42° ENE 05:33:57 10° SE visible
28 Jan - 07:09:25 10° NW 07:14:15 25° WSW 07:19:09 10° SSW visible
28 Jan - 18:41:22 10° SE 18:44:42 16° ESE 18:48:00 10° ENE daylight
28 Jan - 20:24:40 10° SW 20:30:26 60° WNW 20:36:11 10° NNE visible
29 Jan - 05:31:31 10° NNW 05:37:28 64° ENE 05:43:34 10° SE visible
29 Jan - 07:19:47 10° WNW 07:23:14 16° WSW 07:26:43 10° SW visible
29 Jan - 18:48:58 10° SSE 18:53:40 25° ESE 18:58:21 10° NE daylight
29 Jan - 20:34:19 10° SW 20:39:43 38° WNW 20:45:07 10° N visible
30 Jan - 03:56:34 10° NNE 03:59:42 14° NE 04:02:51 10° E visible
30 Jan - 05:40:40 10° NNW 05:46:41 84° WSW 05:52:51 10° SSE visible
30 Jan - 18:57:17 10° S 19:02:43 41° ESE 19:08:06 10° NE daylight
30 Jan - 20:44:21 10° WSW 20:49:06 25° NW 20:53:52 10° N visible
31 Jan - 04:04:44 10° N 04:09:14 21° NE 04:13:47 10° ESE visible
31 Jan - 05:50:00 10° NW 05:55:50 54° WSW 06:01:49 10° S visible
31 Jan - 19:06:02 10° SSW 19:11:49 65° ESE 19:17:34 10° NNE daylight
31 Jan - 20:54:54 10° W 20:58:35 17° NW 21:02:17 10° N visible
01 Feb - 04:13:21 10° N 04:18:40 32° ENE 04:24:04 10° ESE visible
01 Feb - 05:59:34 10° NW 06:04:55 34° WSW 06:10:24 10° S visible
01 Feb - 17:34:13 10° ESE 17:35:26 11° ESE 17:36:40 10° E daylight
01 Feb - 19:15:08 10° SSW 19:20:59 80° WNW 19:26:49 10° NNE visible
01 Feb - 21:06:36 10° WNW 21:08:11 11° NW 21:09:45 10° NNW visible
02 Feb - 04:22:13 10° NNW 04:28:01 48° ENE 04:33:55 10° SE visible
02 Feb - 06:09:29 10° WNW 06:13:57 22° WSW 06:18:30 10° SSW visible
02 Feb - 17:40:29 10° SSE 17:44:22 19° ESE 17:48:15 10° ENE daylight
02 Feb - 19:24:33 10° SW 19:30:13 51° WNW 19:35:53 10° NNE visible
03 Feb - 02:48:35 10° NNE 02:49:59 11° NE 02:51:23 10° ENE night (unlit)
03 Feb - 04:31:14 10° NNW 04:37:16 74° ENE 04:43:25 10° SSE night (unlit)
03 Feb - 06:20:14 10° WNW 06:22:55 13° WSW 06:25:38 10° SW night (unlit)
03 Feb - 17:48:23 10° SSE 17:53:22 30° ESE 17:58:20 10° NE daylight
03 Feb - 19:34:19 10° WSW 19:39:32 33° WNW 19:44:46 10° N visible
04 Feb - 02:55:53 10° NNE 02:59:36 17° NE 03:03:21 10° E night (unlit)
04 Feb - 04:40:27 10° NNW 04:46:27 73° WSW 04:52:36 10° SSE night (unlit)
04 Feb - 17:56:51 10° S 18:02:25 48° ESE 18:07:59 10° NE daylight
04 Feb - 19:44:30 10° WSW 19:48:57 22° NW 19:53:25 10° N visible
05 Feb - 03:04:16 10° N 03:09:05 25° NE 03:14:00 10° ESE night (unlit)
05 Feb - 04:49:51 10° NW 04:55:35 46° WSW 05:01:26 10° S night (unlit)
05 Feb - 18:05:43 10° SSW 18:11:34 76° ESE 18:17:22 10° NNE daylight
05 Feb - 19:55:18 10° W 19:58:28 15° NW 20:01:39 10° NNW visible
06 Feb - 03:12:58 10° N 03:18:29 37° ENE 03:24:07 10° SE night (unlit)
06 Feb - 04:59:31 10° NW 05:04:39 29° WSW 05:09:53 10° SSW night (unlit)
06 Feb - 16:32:34 10° SE 16:35:07 13° ESE 16:37:39 10° ENE daylight
06 Feb - 18:14:57 10° SSW 18:20:45 69° WNW 18:26:33 10° NNE daylight
